Regional Weather Roundup
Issued by NWS Charleston, WV

Home | Current Version | Previous Version | Text Only | Print | Product List | Glossary Off
Versions: 1 2 3 4 5 6 7 8 9 10 11 12 13 14 15 16 17 18 19 20 21 22 23 24 25 26 27 28

000
ASUS41 KRLX 201310
RWRRLX
West Virginia Regional Weather Roundup
National Weather Service Charleston WV
900 AM EDT SUN APR 20 2014

Note: "fair" indicates few or no clouds below 12,000 feet with no
significant weather and/or obstructions to visibility.

WVZ003-201400-
Northern Panhandle of West Virginia

CITY           SKY/WX    TMP DP  RH WIND       PRES   REMARKS
WHEELING       SUNNY     50  29  44 E6        30.34S
$$

WVZ009-201400-
Northwest West Virginia

CITY           SKY/WX    TMP DP  RH WIND       PRES   REMARKS
PARKERSBURG    SUNNY     51  34  52 CALM      30.35R
$$

WVZ006-201400-
Western West Virginia

CITY           SKY/WX    TMP DP  RH WIND       PRES   REMARKS
HUNTINGTON     SUNNY     52  38  58 NE3       30.28R
$$

WVZ015-201400-
West Central West Virginia

CITY           SKY/WX    TMP DP  RH WIND       PRES   REMARKS
CHARLESTON     MOSUNNY   53  40  61 CALM      30.29R
$$

WVZ031-201400-
North Central West Virginia

CITY           SKY/WX    TMP DP  RH WIND       PRES   REMARKS
CLARKSBURG     MOSUNNY   53  29  39 E5        30.33R
MORGANTOWN     MOSUNNY   53  24  32 SE6       30.35R
$$

WVZ035-042-045-201400-
South Central West Virginia

CITY           SKY/WX    TMP DP  RH WIND       PRES   REMARKS
BECKLEY        SUNNY     49  30  48 SE7       30.30R
BLUEFIELD      SUNNY     53  29  39 E9G17     30.30S
LEWISBURG      MOSUNNY   44  32  63 N6        30.31S
$$

WVZ047-201400-
Northern Mountains of West Virginia

CITY           SKY/WX    TMP DP  RH WIND       PRES   REMARKS
ELKINS         SUNNY     54  29  38 CALM      30.32R
$$

WVZ052-201400-
Eastern Panhandle of West Virginia

CITY           SKY/WX    TMP DP  RH WIND       PRES   REMARKS
MARTINSBURG    MOSUNNY   53  27  36 N7        30.40S
PETERSBURG     SUNNY     47  40  76 CALM      30.40F
$$



USA.gov is the U.S. government's official web portal to all federal, state and local government web resources and services.